Location: RyutenAO
(34.8939°N, 134.0022°E)
Time: 11:37:34
(UTC+09:00)

Oscar 19 - Pass Details

Date: 03 April 2023
Orbit: 773 x 788 km, 98.8° (Epoch: 29 May)

Event Time Altitude Azimuth Distance (km) Brightness Sun altitude
Rises 04:08:27 0° 13° (NNE) 3,268 14.4 -20.8°
Reaches altitude 10° 04:10:46 10° 13° (NNE) 2,339 13.6 -20.4°
Maximum altitude 04:15:56 89° 97° (E) 788 10.6 -19.4°
Enters shadow 04:20:23 14° 194° (SSW) 2,048 12.5 -18.5°
